Concordia, KS

12:03 AM CST on December 11, 2019 (GMT -0600)
Blosser Municipal

Weather History for KCNK - November, 2019

Change the Weather History Date:

Thursday, November 14, 2019

  Actual Average Record
Temperature  
Mean Temperature 43 °F 42 °F  
Max Temperature 54 °F 53 °F 74 °F (1990)
Min Temperature 32 °F 32 °F 0 °F (1940)
Degree Days  
Heating Degree Days 22 23  
Month to date heating degree days 336 267  
Since 1 July heating degree days 760 658  
Cooling Degree Days 0 0  
Month to date cooling degree days 0 0  
Year to date cooling degree days 1657 1348  
Moisture  
Dew Point 29 °F    
Average Humidity 60    
Maximum Humidity 82    
Minimum Humidity 38    
Precipitation  
Precipitation 0.00 in 0.04 in 0.74 in (1926)
Month to date precipitation T 0.60  
Year to date precipitation 32.26 26.53  
Snow  
Snow 0.00 in 0.10 in 0.30 in (1978)
Month to date snowfall 0.3 0.7  
Year to date snowfall 32.8 14.6  
Since 1 July snowfall 0.5 0.9  
Snow Depth 0.00 in    
Sea Level Pressure  
Sea Level Pressure 30.33 in    
Wind  
Wind Speed 8 mph (WNW)    
Max Wind Speed 15 mph    
Max Gust Speed 19 mph    
Visibility 10 miles    
Events      
T = Trace of Precipitation, MM = Missing Value Source: NWS Daily Summary

Daily Weather History Graph

Daily Weather History Graph

Search for Another Location

Airport or City:

Astronomy

Nov. 14, 2019 Rise Set
Actual Time 7:13 AM CST 5:16 PM CST
Civil Twilight 6:44 AM CST 5:44 PM CST
Nautical Twilight 6:12 AM CST 6:17 PM CST
Astronomical Twilight 5:40 AM CST 6:49 PM CST
Moon 7:03 PM CST (11/14) 9:09 AM CST (11/14)
Length of Visible Light 11h 00m
Length of Day
10h 02m
Waning Gibbous, 95% of the Moon is Illuminated
Nov 14
Waning Gibbous
Nov 19
Last Quarter
Nov 26
New
Dec 4
First Quarter
Dec 11
Full

Hourly Weather History & Observations

Time (CST) Temp. Windchill Dew Point Humidity Pressure Visibility Wind Dir Wind Speed Gust Speed Precip Events Conditions
12:55 AM 37.9 °F 33.5 °F 30.9 °F 76% 30.21 in 10.0 mi WNW 5.8 mph - N/A   Overcast
1:55 AM 37.9 °F 33.5 °F 30.0 °F 73% 30.24 in 10.0 mi WNW 5.8 mph - N/A   Overcast
2:55 AM 37.9 °F 32.7 °F 30.0 °F 73% 30.26 in 10.0 mi WNW 6.9 mph - N/A   Overcast
3:19 AM 37.9 °F 32.7 °F 30.9 °F 76% 30.25 in 10.0 mi WNW 6.9 mph - N/A   Overcast
3:43 AM 37.0 °F 31.6 °F 30.9 °F 79% 30.25 in 10.0 mi WNW 6.9 mph - N/A   Overcast
3:55 AM 37.9 °F 33.5 °F 30.9 °F 76% 30.28 in 10.0 mi WNW 5.8 mph - N/A   Overcast
4:42 AM 37.4 °F 32.1 °F 32.0 °F 81% 30.28 in 10.0 mi NW 6.9 mph - N/A   Overcast
4:55 AM 37.9 °F 32.1 °F 32.0 °F 79% 30.30 in 10.0 mi NNW 8.1 mph - N/A   Overcast
5:31 AM 36.0 °F 31.1 °F 30.0 °F 79% 30.29 in 10.0 mi North 5.8 mph - N/A   Mostly Cloudy
5:55 AM 35.1 °F 30.1 °F 30.9 °F 85% 30.33 in 10.0 mi NW 5.8 mph - N/A   Mostly Cloudy
6:15 AM 34.0 °F 29.8 °F 30.9 °F 89% 30.31 in 10.0 mi NNW 4.6 mph - N/A   Scattered Clouds
7:55 AM 33.1 °F 30.0 °F 28.9 °F 85% 30.38 in 10.0 mi NW 3.5 mph - N/A   Clear
8:55 AM 37.0 °F 31.0 °F 30.9 °F 79% 30.40 in 10.0 mi WNW 8.1 mph - N/A   Clear
12:55 PM 50.0 °F - 28.0 °F 43% 30.37 in 10.0 mi NW 8.1 mph 17.3 mph N/A   Clear
1:55 PM 52.0 °F - 28.0 °F 40% 30.35 in 10.0 mi NNW 10.4 mph - N/A   Clear
2:55 PM 53.1 °F - 28.0 °F 38% 30.33 in 10.0 mi NNW 9.2 mph - N/A   Clear
3:55 PM 53.1 °F - 28.0 °F 38% 30.32 in 10.0 mi NW 4.6 mph - N/A   Clear
5:55 PM 44.1 °F 42.5 °F 27.0 °F 51% 30.35 in 9.0 mi SE 3.5 mph - N/A   Clear
7:55 PM 39.0 °F 34.8 °F 26.1 °F 60% 30.38 in 10.0 mi South 5.8 mph - N/A   Clear
8:55 PM 39.0 °F 32.8 °F 27.0 °F 62% 30.38 in 10.0 mi South 9.2 mph - N/A   Clear
9:55 PM 41.0 °F 33.9 °F 27.0 °F 57% 30.37 in 10.0 mi South 12.7 mph - N/A   Clear
10:55 PM 39.9 °F 32.1 °F 26.1 °F 58% 30.36 in 10.0 mi South 13.8 mph - N/A   Clear
11:55 PM 37.9 °F 30.9 °F 27.0 °F 65% 30.36 in 10.0 mi SSW 10.4 mph - N/A   Clear